Погода в Зырянке

Погода в Зырянке : погода сейчас, прогноз погоды и архив. Всё, что Вы хотите узнать о погоде в Зырянке!

Хотите узнать прогноз погоды в Зырянке? Тогда Вам сюда: Погода в Зырянке

Поиск расширенной информации на нашем сайте:

Полезная информация: Neverwinter online купить аб кач в neverwinter online neverwinter-diamonds.ru.

Другие новости

Новости СМИ2

Главная страница сайта

Новости сайта

03.07.2017

Напоминаем, что на нашем специализированном сайте Метеоцентр.Азия вы можете получить высокодетализированные автоматические прогнозы погоды по пунктам России, СНГ и мира в авиационном формате (включающие направление и скорость ветра, видимость, явления погоды, количество и форму облачности, нижнюю и верхнюю границу облачности).

Рекомендуем: 2016 следующий год какого животного кого

Погода в Зырянке - сегодня

Время (UTC), дата Ветер
(°,м/с) 
Видим.   Явления Облачность Т
(°С)
Тd
(°С)
f(%) Тe
(°С)
Pmin
(гПа)
dP
(гПа)
Po
(мм)
O2
(г/м3)
Тmin Tmax R s Состояние
почвы
18 20.07.17 340 (С) 20000 м    10/10 240 м 
[St]
+10.9 +10.1 95 +11  1008.3  1.4  752  290           
21 20.07.17 330 (СЗ) 20000 м  слаб. морось  10/10 270 м 
[St]
+10.9 +9.5 91 +10  1010.4  2.1  754  290  +10.9      влажная 
00 21.07.17 340 (С) 10 км  слаб. морось  10/10 120 м 
[St]
+10.4 +9.8 96 +11  1012  1.6  755  291           
03 21.07.17 340 (С) 20000 м  {морось}  10/10 270 м 
[St]
+10.5 +8.7 89 +10  1012.6  0.6  756  292           
06 21.07.17 340 (С) 20000 м  слаб. морось  10/10 270 м 
[St]
+9.9 +7.8 87 +9  1012.9  0.3  756  293           
09 21.07.17 340 (С) 20000 м  слаб. морось  10/10 270 м 
[St]
+8.8 +7.1 89 +8  1012.7  -0.2  756  294    +10.9  0.5     
12 21.07.17 340 (С) 4000 м  слаб. морось  10/10 100 м 
[St]
+8 +7.4 96 +6  1012.2  -0.5  755  294           
15 21.07.17 330 (СЗ) 10 км  слаб. морось  10/10 100 м 
[St]
+8.2 +7.6 96 +8  1011  -1.2  754  294           
18 21.07.17 330 (СЗ) 20000 м  слаб. дождь{морось}  10/10 180 м 
[Frnb|Ns]
+9.4 +9 97 +9  1009.7  -1.3  753  292           
21 21.07.17 350 (С) 20000 м  слаб. дождь{морось}  10/10 180 м 
[Frnb|Ns]
+10 +9.4 96 +9  1008.8  -0.9  753  291  +8      влажная 
00 22.07.17 350 (С) 20000 м  в посл. час дождь  10/10 180 м 
[Frnb|Ns]
+11 +9.6 91 +11  1007.9  -0.9  752  290           
03 22.07.17 350 (С) 20000 м    10/10 210 м 
[Frnb|Ns]
+11.2 +9.4 89 +10  1007.2  -0.7  752  289           
06 22.07.17 350 (С) 20000 м    10/9 400 м средняя 
[Frnb|As op]
+11.4 +8.4 82 +10  1006.4  -0.7  751  289           
09 22.07.17 350 (С) 20000 м    10/9 400 м средняя 
[Frnb|As op]
+11 +7.9 81 +10  1006.2  -0.3  751  289    +12     
12 22.07.17 330 (СЗ) 20000 м    10/10 600 м 
[Sc]
+10.6 +7.9 83 +10  1005.6  -0.6  750  290           
15 22.07.17 310 (СЗ) 20000 м    10/10 570 м 
[Sc]
+9.8 +7.5 86 +10  1004.4  -1.2  749  290           
18 22.07.17 310 (СЗ) 20000 м    10/10 720 м 
[Sc]
+9.6 +7.7 88 +11  1003.8  -0.6  749  290           
21 22.07.17 320 (СЗ) 20000 м    10/0 
[Sc]
+10.6 +8.4 86 +11  1003.1  -0.7  748  289  +9.3        влажная 
00 23.07.17 010 (С) 20000 м    10/4 300 м средняя 
[St|Ac trans]
+12.9 +9.2 78 +13  1002  -1  748  286           
03 23.07.17 360 (С) 20000 м    9/3 1000 м средняя 
[Cu hum|Ac trans]
+14.6 +5.3 54 +16  1001  -1  747  285           
06 23.07.17 тихо ()   20000 м    10/3 1000 м средняя, верхняя 
[Sc diur, vesp|Ac trans|Ci fib]
+15.3 +6 54 +15  1000.2  -0.8  746  284           
09 23.07.17 240 (ЮЗ) 20000 м  в посл. час ливневой дождь  10/4 1000 м кучево-дожд., средняя 
[Cb cap|Ac As]
+13.2 +9.9 80 +15  1000.4  0.2  746  285    +15.8  0.1     
12 23.07.17 300 (СЗ) 20000 м  {ливн. осадки}  10/6 1140 м кучево-дожд., средняя 
[Cb cap|Ac As]
+11 +10 94 +13  1001.1  0.6  747  287           
15 23.07.17 тихо ()   10 км  слаб. дождь{ливн. осадки}  10/8 600 м средняя 
[Frnb|As op]
+10.3 +9.5 95 +11  1001.3  0.2  747  288           
18 23.07.17 240 (ЮЗ) 20000 м  {ливн. осадки, дождь}  10/10 1140 м 
[St]
+10.4 +9.8 96 +13  1002.2  0.9  748  288           
Время (UTC), дата Ветер
(°,м/с) 
Видим.   Явления Облачность Т
(°С)
Тd
(°С)
f(%) Тe
(°С)
Pmin
(гПа)
dP
(гПа)
Po
(мм)
O2
(г/м3)
Тmin Tmax R s Состояние
почвы

Для получения пояснительной информации подведите курсор к названию столбца.

ПОГОДА в Зырянке - архив

Всё, что Вы хотите узнать о погоде в Зырянке - удобно и подробно!

Выберите нужную дату (начиная с 1 января 2015* года) и нажмите кнопку "Найти".
Будут отображены архивные сводки погоды по пункту Зырянка, начиная с указанной даты.


Отображать данные в формате CSV (для использования в таблицах Excel)


Внимание! Наш архив погоды предназначен исключительно для личного некоммерческого использования в познавательных целях. Если Вам необходимы официальные справки о состоянии погоды (для производственных, юридических, коммерческих и т.п. целей), обращайтесь в органы Росгидромета.

*Примечание: данная дата относится к архиву по метеостанциям СССР (Россия, СНГ, Балтия).
Архив по метеостанциям Зарубежной Европы и Азии (кроме Китая) хранится 10 дней, по другим регионам земного шара (Китай, Африка, Америка, Австралия, Океания) - 1 день.

Зырянка - район местоположения метеостанции


Название, широта, долгота, высота метеостанции:
Зырянка 65.7°ш. 150.9°д. 43 м над ур. моря [Российская Федерация]

Дополнительная информация

В oтличие oт бoльшинства пoгoдных сайтoв мы публикуем пoдрoбную метеoинфoрмацию в детальнoм прoфессиoнальнoм фoрмате.

Характеристики температуры и влажнoсти вoздуха измеряются на высoте 2 м в тени вдали oт зданий и деревьев.
Скoрoсть ветра измеряется на высoте 10 м (на урoвне рoста челoвека скoрoсть ветра ниже в 1.5-2 раза). Если метеoстанция нахoдится в гoрoде или в лесу, тo скoрoсть ветра занижена на 2-4 м/с пo сравнению с oткрытым местoм. Скoрoсть ветра над акватoриями крупных рек и oзёр, а также на вершинах хoлмoв на 2-5 м/с выше, чем в oбычных услoвиях.
Атмoсфернoе давление в разных тoчках местнoсти мoжет значительнo oтличаться oт давления на метеoстанции, в зависимoсти oт услoвий рельефа (при пoдъёме на 10 м давление пoнижается примернo на 1 мм рт.ст.).